Weather History for Osceola Municipal, IA

Change the Weather History Date:

Tuesday, October 23, 2012

  Actual Average (KLWD) Record (KLWD)
Temperature  
Mean Temperature 68 °F 50 °F  
Max Temperature 75 °F 61 °F 82 °F (1963)
Min Temperature 61 °F 40 °F 21 °F (1981)
Degree Days  
Heating Degree Days 0 15  
Month to date heating degree days 253  
Since 1 July heating degree days 353  
Cooling Degree Days 3 0  
Month to date cooling degree days 11  
Year to date cooling degree days 944  
Growing Degree Days 18 (Base 50)    
Moisture  
Dew Point 63 °F    
Average Humidity 80    
Maximum Humidity 91    
Minimum Humidity 67    
Precipitation  
Precipitation 0.02 in 0.11 in 1.90 in (1977)
Month to date precipitation 2.09  
Sea Level Pressure  
Sea Level Pressure 29.77 in    
Wind  
Wind Speed 8 mph (SSE)    
Max Wind Speed 16 mph    
Max Gust Speed 23 mph    
Visibility 10 miles    
Events Rain    
T = Trace of Precipitation, MM = Missing Value Source: NWS Daily Summary

Daily Weather History Graph

Daily Weather History Graph

Search for Another Location

Airport:

Trip Planner

Search our weather history database for the weather conditions in past years. The results will help you decide how hot, cold, wet, or windy it might be!

Date:

Astronomy

Oct. 23, 2012 Rise Set
Actual Time 7:35 AM CDT 6:21 PM CDT
Civil Twilight 7:07 AM CDT 6:49 PM CDT
Nautical Twilight 6:35 AM CDT 7:21 PM CDT
Astronomical Twilight 6:03 AM CDT 7:53 PM CDT
Moon 3:08 PM CDT (10/23) 1:25 AM CDT (10/23)
Length of Visible Light 11h 41m
Length of Day
10h 45m
Waxing Gibbous, 67% of the Moon is Illuminated
Oct 23
Waxing Gibbous
Oct 29
Full
Nov 6
Last Quarter
Nov 13
New
Nov 20
First Quarter

Hourly Weather History & Observations

Time (CDT) Temp. Dew Point Humidity Pressure Visibility Wind Dir Wind Speed Gust Speed Precip Events Conditions
12:15 AM 68.0 °F 60.8 °F 78% 29.81 in 10.0 mi WSW 4.6 mph - N/A   Scattered Clouds
12:35 AM 66.4 °F 59.9 °F 80% 29.82 in 10.0 mi South 5.8 mph - N/A   Scattered Clouds
1:15 AM 66.7 °F 59.0 °F 76% 29.81 in 10.0 mi SSW 5.8 mph - N/A   Overcast
1:35 AM 66.4 °F 59.0 °F 77% 29.81 in 10.0 mi SSW 5.8 mph - N/A   Overcast
1:55 AM 66.2 °F 59.0 °F 78% 29.82 in 10.0 mi SW 5.8 mph - N/A   Overcast
2:15 AM 65.5 °F 59.0 °F 80% 29.81 in 10.0 mi South 4.6 mph - N/A   Overcast
2:35 AM 64.4 °F 58.5 °F 81% 29.81 in 10.0 mi SSW 5.8 mph - N/A   Mostly Cloudy
2:55 AM 63.7 °F 58.1 °F 82% 29.81 in 10.0 mi South 4.6 mph - N/A   Mostly Cloudy
3:35 AM 63.5 °F 58.3 °F 83% 29.81 in 10.0 mi South 4.6 mph - N/A   Mostly Cloudy
3:55 AM 63.1 °F 57.9 °F 83% 29.80 in 10.0 mi South 5.8 mph - N/A   Scattered Clouds
4:15 AM 61.9 °F 57.2 °F 85% 29.79 in 10.0 mi South 5.8 mph - N/A   Scattered Clouds
4:35 AM 61.7 °F 57.2 °F 85% 29.79 in 10.0 mi South 5.8 mph - N/A   Clear
4:55 AM 61.0 °F 57.0 °F 87% 29.78 in 10.0 mi SSE 4.6 mph - N/A   Clear
5:15 AM 62.2 °F 58.3 °F 87% 29.78 in 10.0 mi SSE 5.8 mph - N/A   Mostly Cloudy
5:35 AM 63.5 °F 59.5 °F 87% 29.79 in 10.0 mi SSE 5.8 mph - N/A   Overcast
5:55 AM 65.1 °F 61.9 °F 89% 29.79 in 10.0 mi SSE 5.8 mph - N/A   Overcast
6:35 AM 67.5 °F 63.7 °F 88% 29.79 in 10.0 mi SSE 9.2 mph - N/A   Overcast
7:15 AM 68.2 °F 64.4 °F 88% 29.79 in 10.0 mi SSE 9.2 mph - N/A   Overcast
7:35 AM 68.5 °F 64.4 °F 87% 29.80 in 10.0 mi SSE 11.5 mph 17.3 mph N/A   Overcast
7:55 AM 68.9 °F 64.4 °F 86% 29.81 in 10.0 mi SSE 9.2 mph - N/A   Overcast
8:15 AM 68.5 °F 63.9 °F 85% 29.81 in 10.0 mi SE 12.7 mph - N/A   Overcast
8:35 AM 67.5 °F 62.8 °F 85% 29.82 in 10.0 mi SE 11.5 mph 17.3 mph N/A   Overcast
8:55 AM 66.7 °F 62.8 °F 87% 29.81 in 10.0 mi SE 10.4 mph 16.1 mph N/A   Overcast
9:15 AM 66.7 °F 62.8 °F 87% 29.82 in 7.0 mi SSE 10.4 mph - N/A   Overcast
9:35 AM 66.4 °F 63.3 °F 90% 29.82 in 4.0 mi SSE 8.1 mph - 0.01 in   Drizzle
9:55 AM 66.2 °F 63.5 °F 91% 29.81 in 3.0 mi SSE 9.2 mph - 0.01 in   Drizzle
10:15 AM 66.2 °F 63.5 °F 91% 29.81 in 4.0 mi SSE 10.4 mph 16.1 mph 0.01 in Rain Light Rain
10:55 AM 67.1 °F 64.2 °F 90% 29.79 in 10.0 mi SSE 11.5 mph 17.3 mph 0.01 in   Overcast
11:15 AM 66.4 °F 63.5 °F 90% 29.79 in 7.0 mi SSE 15.0 mph 18.4 mph N/A   Overcast
11:35 AM 66.9 °F 63.7 °F 89% 29.79 in 7.0 mi SSE 13.8 mph - N/A   Overcast
11:55 AM 68.0 °F 63.9 °F 87% 29.79 in 10.0 mi South 11.5 mph 18.4 mph N/A   Overcast
12:15 PM 69.4 °F 64.2 °F 83% 29.79 in 10.0 mi South 12.7 mph 19.6 mph N/A   Overcast
12:35 PM 70.7 °F 64.4 °F 80% 29.77 in 10.0 mi SSE 13.8 mph 20.7 mph N/A   Overcast
12:55 PM 71.8 °F 64.6 °F 78% 29.77 in 10.0 mi SSE 15.0 mph 19.6 mph N/A   Overcast
1:15 PM 73.2 °F 64.8 °F 75% 29.75 in 10.0 mi South 16.1 mph - N/A   Mostly Cloudy
1:35 PM 73.4 °F 64.2 °F 73% 29.75 in 10.0 mi South 15.0 mph 23.0 mph N/A   Mostly Cloudy
1:55 PM 73.0 °F 64.0 °F 73% 29.74 in 10.0 mi SSE 16.1 mph 20.7 mph N/A   Overcast
2:15 PM 73.2 °F 64.2 °F 73% 29.73 in 10.0 mi SSE 12.7 mph 17.3 mph N/A   Overcast
2:35 PM 73.4 °F 64.0 °F 72% 29.72 in 10.0 mi SSE 12.7 mph - N/A   Overcast
2:55 PM 73.9 °F 64.0 °F 71% 29.72 in 10.0 mi SSE 12.7 mph - N/A   Overcast
3:15 PM 74.7 °F 64.0 °F 69% 29.71 in 10.0 mi SSE 12.7 mph 19.6 mph N/A   Overcast
3:35 PM 74.8 °F 63.5 °F 68% 29.71 in 10.0 mi South 13.8 mph 21.9 mph N/A   Overcast
3:55 PM 74.7 °F 63.1 °F 67% 29.71 in 10.0 mi South 13.8 mph 21.9 mph N/A   Overcast
4:15 PM 74.7 °F 63.5 °F 68% 29.71 in 10.0 mi SSE 10.4 mph 16.1 mph N/A   Overcast
4:35 PM 75.2 °F 63.5 °F 67% 29.71 in 10.0 mi SSE 13.8 mph 18.4 mph N/A   Overcast
4:55 PM 74.8 °F 63.7 °F 68% 29.71 in 10.0 mi SSE 9.2 mph - N/A   Overcast
5:15 PM 74.5 °F 63.9 °F 69% 29.72 in 10.0 mi SSE 10.4 mph - N/A   Overcast
5:35 PM 74.5 °F 63.9 °F 69% 29.72 in 10.0 mi SSE 9.2 mph - N/A   Overcast
5:55 PM 74.3 °F 64.0 °F 70% 29.73 in 10.0 mi SSE 6.9 mph - N/A   Overcast
6:15 PM 73.6 °F 63.9 °F 72% 29.74 in 10.0 mi SSE 8.1 mph - N/A   Mostly Cloudy
6:35 PM 72.1 °F 63.9 °F 75% 29.74 in 10.0 mi SSE 8.1 mph - N/A   Scattered Clouds
6:55 PM 71.6 °F 64.0 °F 77% 29.73 in 10.0 mi SE 8.1 mph - N/A   Scattered Clouds
7:15 PM 70.9 °F 64.0 °F 79% 29.74 in 10.0 mi SE 8.1 mph - N/A   Clear
7:35 PM 70.2 °F 63.9 °F 80% 29.74 in 10.0 mi SE 6.9 mph - N/A   Clear
7:55 PM 69.4 °F 63.9 °F 82% 29.74 in 10.0 mi SE 8.1 mph - N/A   Clear
8:15 PM 68.9 °F 63.7 °F 83% 29.75 in 10.0 mi SE 6.9 mph - N/A   Clear
8:35 PM 69.1 °F 63.7 °F 83% 29.75 in 10.0 mi SSE 8.1 mph - N/A   Clear
8:55 PM 69.8 °F 63.5 °F 80% 29.75 in 10.0 mi SSE 10.4 mph - N/A   Clear
9:15 PM 69.8 °F 63.5 °F 80% 29.75 in 10.0 mi SSE 9.2 mph - N/A   Clear
9:35 PM 70.5 °F 63.5 °F 78% 29.76 in 10.0 mi South 10.4 mph - N/A   Clear
9:55 PM 70.7 °F 63.7 °F 78% 29.76 in 10.0 mi South 12.7 mph - N/A   Clear
10:15 PM 70.7 °F 63.7 °F 78% 29.77 in 10.0 mi South 11.5 mph - N/A   Clear
10:35 PM 70.2 °F 63.7 °F 80% 29.77 in 10.0 mi South 11.5 mph - N/A   Clear
10:55 PM 70.0 °F 63.7 °F 80% 29.77 in 10.0 mi South 11.5 mph - N/A   Clear
11:15 PM 69.8 °F 63.7 °F 81% 29.76 in 10.0 mi South 11.5 mph 17.3 mph N/A   Clear
11:35 PM 69.8 °F 63.7 °F 81% 29.77 in 10.0 mi South 11.5 mph 17.3 mph N/A   Clear
11:55 PM 69.8 °F 63.7 °F 81% 29.77 in 10.0 mi South 12.7 mph - N/A   Clear